When you browse on this site, cookies collect data to enhance your experience and personalize the content and advertising you see.
Visit our Privacy Policy to learn more. By continuing to use the site, you agree to this use of cookies and data.
  • In Denmark
  • List of Countries
  • For 7 days
  • Water Temperature
  • Satellite Maps
  • Weather Map
  • Weather Widgets
  • user-avatar
    Login

    Hourly Weather Juraszowa

    Today, 17 February, Sunday

    Time Temperature Precipitation Wind Pressure Humidity
    00:00 +3°C° 0 mm 2 mps 734 mmHg 75%
    01:00 +3°C° 0 mm 2 mps 734 mmHg 72%
    02:00 +3°C° 0 mm 2 mps 734 mmHg 71%
    03:00 +3°C° 0 mm 2 mps 733 mmHg 69%
    04:00 +2°C° 0 mm 2 mps 733 mmHg 68%
    05:00 +2°C° 0 mm 2 mps 733 mmHg 66%
    06:00 +2°C° 0 mm 2 mps 733 mmHg 65%
    07:00 +2°C° 0 mm 2 mps 733 mmHg 64%
    08:00 +5°C° 0 mm 1 mps 733 mmHg 62%
    09:00 +7°C° 0 mm 1 mps 734 mmHg 59%
    10:00 +9°C° 0 mm 1 mps 734 mmHg 57%
    11:00 +11°C° 0 mm 1 mps 734 mmHg 55%
    12:00 +12°C° 0 mm 1 mps 733 mmHg 53%
    13:00 +13°C° 0 mm 1 mps 733 mmHg 51%
    14:00 +12°C° 0 mm 1 mps 733 mmHg 57%
    15:00 +11°C° 0 mm 1 mps 733 mmHg 63%
    16:00 +8°C° 0 mm 0 mps 732 mmHg 69%
    17:00 +8°C° 0 mm 1 mps 732 mmHg 72%
    18:00 +7°C° 0 mm 1 mps 732 mmHg 75%
    19:00 +5°C° 0 mm 1 mps 732 mmHg 78%
    20:00 +5°C° 0 mm 1 mps 732 mmHg 78%
    21:00 +5°C° 0 mm 1 mps 732 mmHg 78%
    22:00 +4°C° 0 mm 1 mps 732 mmHg 77%
    23:00 +4°C° 0 mm 1 mps 732 mmHg 75%

    Tomorrow, 18 February, Monday

    Time Temperature Precipitation Wind Pressure Humidity
    00:00 +4°C° 0 mm 1 mps 732 mmHg 74%
    01:00 +4°C° 0 mm 1 mps 732 mmHg 72%
    02:00 +3°C° 0 mm 1 mps 732 mmHg 70%
    03:00 +3°C° 0 mm 1 mps 732 mmHg 69%
    04:00 +3°C° 0 mm 1 mps 731 mmHg 67%
    05:00 +3°C° 0 mm 1 mps 731 mmHg 65%
    06:00 +3°C° 0 mm 1 mps 731 mmHg 64%
    07:00 +3°C° 0 mm 1 mps 731 mmHg 62%
    08:00 +5°C° 0 mm 1 mps 732 mmHg 59%
    09:00 +7°C° 0 mm 1 mps 732 mmHg 56%
    10:00 +8°C° 0 mm 0 mps 732 mmHg 52%
    11:00 +9°C° 0 mm 0 mps 732 mmHg 51%
    12:00 +11°C° 0 mm 0 mps 732 mmHg 49%
    13:00 +12°C° 0 mm 0 mps 731 mmHg 47%
    14:00 +11°C° 0 mm 0 mps 731 mmHg 54%
    15:00 +10°C° 0 mm 0 mps 731 mmHg 60%
    16:00 +10°C° 0 mm 1 mps 730 mmHg 66%
    17:00 +8°C° 0 mm 1 mps 730 mmHg 70%
    18:00 +7°C° 0 mm 1 mps 730 mmHg 74%
    19:00 +5°C° 0 mm 1 mps 730 mmHg 78%
    20:00 +5°C° 0 mm 1 mps 730 mmHg 77%
    21:00 +5°C° 0 mm 1 mps 730 mmHg 77%
    22:00 +3°C° 0 mm 2 mps 730 mmHg 76%
    23:00 +3°C° 0 mm 2 mps 730 mmHg 74%

    Day after tomorrow, 19 February, Tuesday

    Time Temperature Precipitation Wind Pressure Humidity
    00:00 +3°C° 0 mm 2 mps 730 mmHg 73%
    01:00 +3°C° 0 mm 2 mps 730 mmHg 71%
    02:00 +2°C° 0 mm 2 mps 730 mmHg 70%
    03:00 +2°C° 0 mm 2 mps 729 mmHg 69%
    04:00 +2°C° 0 mm 2 mps 729 mmHg 68%
    05:00 +2°C° 0 mm 2 mps 729 mmHg 68%
    06:00 +2°C° 0 mm 2 mps 729 mmHg 68%
    07:00 +2°C° 0 mm 2 mps 729 mmHg 68%
    08:00 +4°C° 0 mm 2 mps 729 mmHg 65%
    09:00 +7°C° 0 mm 1 mps 729 mmHg 61%
    10:00 +9°C° 0 mm 1 mps 729 mmHg 57%
    11:00 +10°C° 0 mm 1 mps 729 mmHg 55%
    12:00 +11°C° 0 mm 1 mps 729 mmHg 53%
    13:00 +12°C° 0 mm 1 mps 729 mmHg 51%
    14:00 +11°C° 0 mm 1 mps 728 mmHg 57%
    15:00 +11°C° 0 mm 1 mps 728 mmHg 62%
    16:00 +10°C° 0 mm 1 mps 727 mmHg 67%
    17:00 +8°C° 0 mm 1 mps 727 mmHg 73%
    18:00 +7°C° 0 mm 1 mps 727 mmHg 78%
    19:00 +4°C° 0 mm 2 mps 727 mmHg 84%
    20:00 +4°C° 0 mm 2 mps 727 mmHg 83%
    21:00 +3°C° 0 mm 2 mps 728 mmHg 82%
    22:00 +3°C° 0 mm 2 mps 728 mmHg 81%
    23:00 +3°C° 0 mm 2 mps 728 mmHg 81%

    20 February, Wednesday

    Time Temperature Precipitation Wind Pressure Humidity
    00:00 +3°C° 0 mm 2 mps 728 mmHg 80%
    01:00 +4°C° 0 mm 2 mps 728 mmHg 80%
    02:00 +4°C° 0.1 mm 2 mps 728 mmHg 84%
    03:00 +4°C° 0.1 mm 2 mps 728 mmHg 87%
    04:00 +4°C° 0.1 mm 2 mps 728 mmHg 91%
    05:00 +3°C° 0 mm 2 mps 729 mmHg 92%
    06:00 +2°C° 0 mm 2 mps 729 mmHg 92%
    07:00 +2°C° 0 mm 2 mps 729 mmHg 93%
    08:00 +2°C° 0 mm 3 mps 729 mmHg 86%
    09:00 +3°C° 0 mm 3 mps 730 mmHg 78%
    10:00 +5°C° 0 mm 4 mps 730 mmHg 71%
    11:00 +5°C° 0 mm 4 mps 730 mmHg 68%
    12:00 +6°C° 0 mm 4 mps 730 mmHg 64%
    13:00 +6°C° 0 mm 4 mps 730 mmHg 61%
    14:00 +6°C° 0 mm 4 mps 730 mmHg 63%
    15:00 +5°C° 0 mm 4 mps 730 mmHg 65%
    16:00 +5°C° 0 mm 3 mps 730 mmHg 68%
    17:00 +4°C° 0 mm 3 mps 731 mmHg 72%
    18:00 +4°C° 0 mm 2 mps 731 mmHg 76%
    19:00 +3°C° 0 mm 2 mps 731 mmHg 80%
    20:00 +3°C° 0 mm 2 mps 731 mmHg 81%
    21:00 +3°C° 0 mm 2 mps 732 mmHg 83%
    22:00 +3°C° 0 mm 2 mps 732 mmHg 85%
    23:00 +3°C° 0 mm 2 mps 732 mmHg 84%

    21 February, Thursday

    Time Temperature Precipitation Wind Pressure Humidity
    00:00 +2°C° 0 mm 2 mps 732 mmHg 83%
    01:00 +2°C° 0 mm 2 mps 732 mmHg 82%
    02:00 +2°C° 0 mm 2 mps 732 mmHg 82%
    03:00 +2°C° 0 mm 2 mps 732 mmHg 82%
    04:00 +2°C° 0 mm 2 mps 732 mmHg 83%
    05:00 +2°C° 0 mm 2 mps 732 mmHg 84%
    06:00 +2°C° 0 mm 2 mps 732 mmHg 85%
    07:00 +2°C° 0 mm 2 mps 732 mmHg 86%
    08:00 +3°C° 0 mm 2 mps 732 mmHg 80%
    09:00 +5°C° 0 mm 2 mps 732 mmHg 74%
    10:00 +7°C° 0 mm 2 mps 733 mmHg 67%
    11:00 +7°C° 0 mm 2 mps 732 mmHg 66%
    12:00 +8°C° 0 mm 2 mps 732 mmHg 64%
    13:00 +9°C° 0 mm 3 mps 732 mmHg 62%
    14:00 +8°C° 0.1 mm 2 mps 732 mmHg 67%
    15:00 +7°C° 0.1 mm 2 mps 731 mmHg 73%
    16:00 +8°C° 0.1 mm 1 mps 731 mmHg 78%
    17:00 +7°C° 0.2 mm 1 mps 731 mmHg 81%
    18:00 +7°C° 0.2 mm 1 mps 731 mmHg 84%
    19:00 +6°C° 0.2 mm 1 mps 731 mmHg 87%
    20:00 +6°C° 0.2 mm 1 mps 730 mmHg 87%
    21:00 +6°C° 0.2 mm 1 mps 730 mmHg 88%
    22:00 +5°C° 0.2 mm 1 mps 730 mmHg 88%
    23:00 +5°C° 0.2 mm 1 mps 730 mmHg 88%

    22 February, Friday

    Time Temperature Precipitation Wind Pressure Humidity
    00:00 +5°C° 0.2 mm 1 mps 729 mmHg 88%
    01:00 +5°C° 0.2 mm 1 mps 729 mmHg 88%
    02:00 +5°C° 0.3 mm 1 mps 729 mmHg 88%
    03:00 +5°C° 0.3 mm 1 mps 729 mmHg 89%
    04:00 +5°C° 0.3 mm 1 mps 728 mmHg 90%
    05:00 +5°C° 0.6 mm 1 mps 728 mmHg 92%
    06:00 +5°C° 0.6 mm 1 mps 728 mmHg 93%
    07:00 +5°C° 0.6 mm 1 mps 728 mmHg 95%
    08:00 +5°C° 0.5 mm 1 mps 728 mmHg 95%
    09:00 +5°C° 0.5 mm 1 mps 728 mmHg 95%
    10:00 +5°C° 0.5 mm 2 mps 728 mmHg 95%
    11:00 +5°C° 0.6 mm 2 mps 728 mmHg 95%
    12:00 +5°C° 0.6 mm 2 mps 729 mmHg 95%
    13:00 +5°C° 0.6 mm 2 mps 729 mmHg 95%
    14:00 +5°C° 0.7 mm 2 mps 729 mmHg 95%
    15:00 +4°C° 0.7 mm 3 mps 730 mmHg 95%
    16:00 +4°C° 0.7 mm 3 mps 730 mmHg 96%
    17:00 +1°C° 1 mm 4 mps 731 mmHg 95%
    18:00 -1°C° 1 mm 4 mps 732 mmHg 95%
    19:00 -4°C° 1 mm 5 mps 733 mmHg 95%
    20:00 -5°C° 0.2 mm 5 mps 734 mmHg 90%
    21:00 -6°C° 0.2 mm 5 mps 735 mmHg 86%
    22:00 -7°C° 0.2 mm 5 mps 736 mmHg 82%
    23:00 -7°C° 0 mm 4 mps 737 mmHg 81%
    Show more